Weather History for Sioux Falls, SD

Change the Weather History Date:

Wednesday, January 23, 2013

  Actual Average Record
Temperature  
Mean Temperature 7 °F 17 °F  
Max Temperature 17 °F 27 °F 57 °F (1981)
Min Temperature -4 °F 7 °F -23 °F (1948)
Degree Days  
Heating Degree Days 58 48  
Month to date heating degree days 1088 1122  
Since 1 July heating degree days 4028 4255  
Cooling Degree Days 0 0  
Month to date cooling degree days 0 0  
Year to date cooling degree days 0 0  
Moisture  
Dew Point 1 °F    
Average Humidity 75    
Maximum Humidity 88    
Minimum Humidity 61    
Precipitation  
Precipitation 0.00 in 0.02 in 0.32 in (2010)
Month to date precipitation 0.20 0.42  
Year to date precipitation 0.20 0.42  
Snow  
Snow 0.00 in 0.20 in 4.60 in (1969)
Month to date snowfall 2.0 5.6  
Since 1 July snowfall 15.8 22.5  
Snow Depth 1.00 in    
Sea Level Pressure  
Sea Level Pressure 30.41 in    
Wind  
Wind Speed 10 mph (NNW)    
Max Wind Speed 22 mph    
Max Gust Speed 26 mph    
Visibility 10 miles    
Events      
T = Trace of Precipitation, MM = Missing Value Source: NWS Daily Summary

Daily Weather History Graph

Daily Weather History Graph

Search for Another Location

Airport:

Trip Planner

Search our weather history database for the weather conditions in past years. The results will help you decide how hot, cold, wet, or windy it might be!

Date:

Astronomy

Jan. 23, 2013 Rise Set
Actual Time 7:51 AM CST 5:26 PM CST
Civil Twilight 7:20 AM CST 5:57 PM CST
Nautical Twilight 6:45 AM CST 6:32 PM CST
Astronomical Twilight 6:11 AM CST 7:06 PM CST
Moon 2:36 PM CST 5:05 AM CST
Length of Visible Light 10h 37m
Length of Day
9h 34m
Waxing Gibbous, 89% of the Moon is Illuminated
Jan 23
Waxing Gibbous
Jan 26
Full
Feb 3
Last Quarter
Feb 10
New
Feb 17
First Quarter

Hourly Weather History & Observations

Time (CST) Temp. Windchill Dew Point Humidity Pressure Visibility Wind Dir Wind Speed Gust Speed Precip Events Conditions
12:56 AM 12.0 °F 0.5 °F 7.0 °F 80% 30.21 in 10.0 mi SSW 8.1 mph - N/A   Clear
1:56 AM 10.0 °F 1.8 °F 7.0 °F 87% 30.20 in 10.0 mi SW 4.6 mph - N/A   Clear
2:56 AM 7.0 °F - 3.9 °F 87% 30.22 in 10.0 mi Calm Calm - N/A   Clear
3:56 AM 5.0 °F - 1.9 °F 87% 30.22 in 10.0 mi Calm Calm - N/A   Clear
4:56 AM 3.9 °F - -0.0 °F 84% 30.22 in 9.0 mi Calm Calm - N/A   Clear
5:56 AM 5.0 °F - 1.9 °F 87% 30.23 in 10.0 mi Calm Calm - N/A   Clear
6:56 AM 8.1 °F -2.0 °F 5.0 °F 87% 30.25 in 10.0 mi WNW 5.8 mph - N/A   Clear
7:56 AM 8.1 °F -6.2 °F 5.0 °F 87% 30.27 in 10.0 mi NW 10.4 mph - N/A   Clear
8:56 AM 10.0 °F -2.9 °F 7.0 °F 87% 30.29 in 10.0 mi NW 9.2 mph - N/A   Clear
9:56 AM 12.9 °F -0.9 °F 8.1 °F 81% 30.33 in 10.0 mi NW 11.5 mph - N/A   Clear
10:56 AM 16.0 °F 1.7 °F 9.0 °F 74% 30.35 in 10.0 mi NNW 13.8 mph - N/A   Partly Cloudy
11:56 AM 16.0 °F -0.4 °F 7.0 °F 68% 30.38 in 10.0 mi NNW 18.4 mph - N/A   Partly Cloudy
12:56 PM 15.1 °F -0.1 °F 6.1 °F 68% 30.40 in 10.0 mi North 15.0 mph - N/A   Partly Cloudy
1:56 PM 15.1 °F -0.1 °F 5.0 °F 64% 30.40 in 10.0 mi NNW 15.0 mph - N/A   Partly Cloudy
2:56 PM 14.0 °F -0.8 °F 3.0 °F 62% 30.43 in 10.0 mi North 13.8 mph - N/A   Clear
3:56 PM 12.0 °F -3.4 °F 1.9 °F 64% 30.47 in 10.0 mi North 13.8 mph - N/A   Clear
4:56 PM 8.1 °F -9.0 °F -0.9 °F 67% 30.53 in 10.0 mi NNW 15.0 mph - N/A   Partly Cloudy
5:56 PM 6.1 °F -9.5 °F -2.9 °F 67% 30.55 in 10.0 mi North 11.5 mph - N/A   Clear
6:56 PM 3.9 °F -13.0 °F -4.0 °F 70% 30.58 in 10.0 mi North 12.7 mph - N/A   Clear
7:56 PM 1.9 °F -15.5 °F -6.0 °F 69% 30.60 in 10.0 mi North 12.7 mph - N/A   Clear
8:56 PM -0.0 °F -16.3 °F -7.1 °F 72% 30.60 in 10.0 mi NNE 10.4 mph - N/A   Clear
9:56 PM -0.9 °F -16.4 °F -9.9 °F 66% 30.62 in 10.0 mi North 9.2 mph - N/A   Clear
10:56 PM -2.9 °F -19.8 °F -11.9 °F 65% 30.62 in 10.0 mi NNE 10.4 mph - N/A   Clear
11:56 PM -4.0 °F -20.2 °F -13.0 °F 65% 30.63 in 10.0 mi NE 9.2 mph - N/A   Clear